Date String (YYYY-MM-DD hh:mm:ss) UTC,Instrument flags,Ambient pressure (hPa),Sample flow (lpm),Bypass flow (lpm),Sample temperature (°C),Ambient temperature (°C),ASC tube jacket temperature (°C),LED temperature (°C),Box temperature (°C),Sample RH (%),Span deviation,Mass concentration (μg/m³),Mass concentration (μg/m³),Mass concentration (μg/m³)
DateTimeUTC,F1_M11,P_M11,Q1_M11,Q2_M11,T1_M11,T2_M11,T3_M11,T4_M11,T5_M11,U1_M11,ZSPAN_M11,X0_M11,X2_M11,X1_M11
2022-02-08 23:00:00,,0828.6,5.00,0.00,25.9,25.3,00.0,34.8,27.6,07.0,0000.0,0008.33,0002.68,0001.61
2022-02-08 23:01:00,,0828.6,5.01,0.00,25.9,25.3,00.0,34.8,27.6,07.0,0000.0,0008.21,0002.72,0001.62
2022-02-08 23:02:00,,0828.7,5.01,0.00,25.9,25.3,00.0,34.8,27.7,07.1,0000.0,0008.18,0002.73,0001.63
2022-02-08 23:03:00,,0828.9,4.99,0.00,25.9,25.3,00.0,34.8,27.7,07.2,0000.0,0008.42,0002.82,0001.63
2022-02-08 23:04:00,,0828.6,4.99,0.00,25.9,25.3,00.0,34.8,27.7,07.0,0000.0,0007.86,0002.82,0001.65
2022-02-08 23:05:00,,0828.6,5.00,0.00,25.9,25.3,00.0,34.8,27.7,07.3,0000.0,0007.35,0002.88,0001.66
2022-02-08 23:06:00,,0828.8,5.01,0.00,25.9,25.4,00.0,34.9,27.7,07.0,0000.0,0007.34,0002.88,0001.65
2022-02-08 23:07:00,,0828.6,5.00,0.00,25.9,25.4,00.0,34.9,27.8,07.0,0000.0,0007.25,0002.88,0001.65
2022-02-08 23:08:00,,0828.9,5.00,0.00,26.0,25.4,00.0,34.9,27.8,07.1,0000.0,0007.49,0002.82,0001.64
2022-02-08 23:09:00,,0828.7,4.99,0.00,26.0,25.4,00.0,34.9,27.9,07.2,0000.0,0007.93,0002.78,0001.62
2022-02-08 23:10:00,,0828.6,5.00,0.00,26.0,25.4,00.0,34.9,27.9,07.1,0000.0,0007.79,0002.79,0001.61
2022-02-08 23:11:00,,0828.7,4.99,0.00,26.0,25.4,00.0,34.9,27.9,07.1,0000.0,0007.77,0002.80,0001.59
2022-02-08 23:12:00,,0828.5,5.00,0.00,26.0,25.5,00.0,34.9,27.9,07.1,0000.0,0007.60,0002.74,0001.58
2022-02-08 23:13:00,,0828.7,5.01,0.00,26.0,25.5,00.0,34.9,27.9,07.1,0000.0,0007.83,0002.72,0001.59
2022-02-08 23:14:00,,0828.6,4.99,0.00,26.1,25.5,00.0,34.9,28.0,07.1,0000.0,0008.14,0002.59,0001.59
2022-02-08 23:15:00,,0829.1,5.01,0.00,26.1,25.6,00.0,34.9,28.0,07.1,0000.0,0007.89,0002.48,0001.57
2022-02-08 23:16:00,,0829.1,4.99,0.00,26.1,25.6,00.0,34.9,28.0,07.2,0000.0,0007.95,0002.44,0001.55
2022-02-08 23:17:00,,0828.8,5.01,0.00,26.1,25.6,00.0,35.0,28.0,07.2,0000.0,0009.28,0002.40,0001.54
2022-02-08 23:18:00,,0828.4,4.99,0.00,26.2,25.6,00.0,35.0,28.0,07.1,0000.0,0009.90,0002.34,0001.53
2022-02-08 23:19:00,,0828.4,5.02,0.00,26.2,25.7,00.0,35.0,28.0,07.0,0000.0,0009.89,0002.35,0001.53
2022-02-08 23:20:00,,0828.5,4.98,0.00,26.2,25.7,00.0,35.0,28.1,06.9,0000.0,0009.41,0002.36,0001.51
2022-02-08 23:21:00,,0828.5,5.01,0.00,26.2,25.7,00.0,35.0,28.1,07.1,0000.0,0009.32,0002.27,0001.50
2022-02-08 23:22:00,,0828.5,4.99,0.00,26.2,25.7,00.0,35.0,28.1,07.2,0000.0,0009.11,0002.19,0001.50
2022-02-08 23:23:00,,0828.5,5.00,0.00,26.2,25.7,00.0,35.0,28.1,07.2,0000.0,0009.24,0002.15,0001.50
2022-02-08 23:24:00,,0829.0,5.00,0.00,26.3,25.7,00.0,35.1,28.2,07.2,0000.0,0009.66,0002.16,0001.49
2022-02-08 23:25:00,,0828.9,5.01,0.00,26.3,25.8,00.0,35.1,28.2,07.2,0000.0,0009.34,0002.18,0001.48
2022-02-08 23:26:00,,0828.6,4.99,0.00,26.3,25.8,00.0,35.1,28.2,06.8,0000.0,0009.83,0002.24,0001.48
2022-02-08 23:27:00,,0828.5,5.02,0.00,26.3,25.8,00.0,35.1,28.2,06.8,0000.0,0009.68,0002.21,0001.48
2022-02-08 23:28:00,,0828.5,4.99,0.00,26.3,25.8,00.0,35.1,28.2,06.6,0000.0,0008.24,0002.21,0001.49
2022-02-08 23:29:00,,0828.5,5.01,0.00,26.3,25.8,00.0,35.1,28.2,06.8,0000.0,0007.53,0002.21,0001.49
2022-02-08 23:30:00,,0828.4,5.01,0.00,26.4,25.8,00.0,35.1,28.2,06.9,0000.0,0007.65,0002.19,0001.48
2022-02-08 23:31:00,,0828.5,4.99,0.00,26.4,25.9,00.0,35.2,28.3,06.8,0000.0,0007.78,0002.21,0001.49
2022-02-08 23:32:00,,0828.5,5.00,0.00,26.4,25.9,00.0,35.2,28.3,06.9,0000.0,0007.81,0002.24,0001.51
2022-02-08 23:33:00,,0828.4,5.01,0.00,26.4,25.9,00.0,35.2,28.3,06.9,0000.0,0007.83,0002.27,0001.50
2022-02-08 23:34:00,,0828.4,4.99,0.00,26.4,25.9,00.0,35.2,28.3,06.7,0000.0,0007.74,0002.35,0001.51
2022-02-08 23:35:00,,0828.3,5.00,0.00,26.4,25.9,00.0,35.2,28.3,06.7,0000.0,0006.99,0002.37,0001.50
2022-02-08 23:36:00,,0828.3,5.02,0.00,26.4,25.9,00.0,35.2,28.3,06.8,0000.0,0006.54,0002.41,0001.51
2022-02-08 23:37:00,,0828.3,5.00,0.00,26.5,25.9,00.0,35.2,28.3,06.6,0000.0,0005.92,0002.38,0001.51
2022-02-08 23:38:00,,0828.3,5.00,0.00,26.5,25.9,00.0,35.3,28.3,06.6,0000.0,0006.96,0002.41,0001.53
2022-02-08 23:39:00,,0828.3,4.99,0.00,26.5,25.9,00.0,35.3,28.4,06.5,0000.0,0007.36,0002.49,0001.52
2022-02-08 23:40:00,,0828.3,5.00,0.00,26.5,25.9,00.0,35.3,28.4,06.7,0000.0,0007.56,0002.47,0001.52
2022-02-08 23:41:00,,0828.4,5.01,0.00,26.5,26.0,00.0,35.3,28.4,06.8,0000.0,0007.89,0002.51,0001.53
2022-02-08 23:42:00,,0828.3,5.01,0.00,26.5,26.0,00.0,35.3,28.4,06.8,0000.0,0007.95,0002.46,0001.53
2022-02-08 23:43:00,,0828.3,4.99,0.00,26.5,26.0,00.0,35.3,28.4,06.8,0000.0,0007.87,0002.42,0001.52
2022-02-08 23:44:00,,0828.3,5.00,0.00,26.5,26.0,00.0,35.4,28.4,06.7,0000.0,0008.28,0002.42,0001.52
2022-02-08 23:45:00,,0828.3,5.02,0.00,26.6,26.0,00.0,35.4,28.4,06.5,0000.0,0008.81,0002.38,0001.52
2022-02-08 23:46:00,,0828.4,4.99,0.00,26.6,26.0,00.0,35.4,28.4,06.6,0000.0,0008.86,0002.36,0001.52
2022-02-08 23:47:00,,0828.4,5.01,0.00,26.6,26.0,00.0,35.4,28.4,06.7,0000.0,0009.05,0002.39,0001.53
2022-02-08 23:48:00,,0828.3,4.99,0.00,26.6,26.0,00.0,35.4,28.4,06.9,0000.0,0009.09,0002.41,0001.54
2022-02-08 23:49:00,,0828.3,4.99,0.00,26.6,26.0,00.0,35.4,28.4,07.0,0000.0,0009.17,0002.39,0001.53
2022-02-08 23:50:00,,0828.3,5.01,0.00,26.6,26.0,00.0,35.4,28.5,06.9,0000.0,0008.86,0002.31,0001.53
2022-02-08 23:51:00,,0828.4,5.01,0.00,26.6,26.0,00.0,35.4,28.5,06.7,0000.0,0009.05,0002.29,0001.52
2022-02-08 23:52:00,,0828.3,5.02,0.00,26.6,26.0,00.0,35.4,28.4,06.7,0000.0,0008.54,0002.30,0001.51
2022-02-08 23:53:00,,0828.3,5.00,0.00,26.6,26.0,00.0,35.5,28.5,06.3,0000.0,0008.49,0002.27,0001.49
2022-02-08 23:54:00,,0828.2,5.00,0.00,26.6,26.0,00.0,35.5,28.4,06.1,0000.0,0008.94,0002.29,0001.47
2022-02-08 23:55:00,,0828.2,5.00,0.00,26.6,26.0,00.0,35.5,28.4,05.7,0000.0,0008.73,0002.26,0001.43
2022-02-08 23:56:00,,0828.3,4.99,0.00,26.6,26.0,00.0,35.5,28.4,05.4,0000.0,0008.05,0002.23,0001.38
2022-02-08 23:57:00,,0828.2,5.00,0.00,26.6,26.0,00.0,35.5,28.5,05.6,0000.0,0007.89,0002.17,0001.32
2022-02-08 23:58:00,,0828.2,5.00,0.00,26.6,26.0,00.0,35.5,28.5,05.4,0000.0,0007.57,0002.03,0001.24
2022-02-08 23:59:00,,0828.2,5.01,0.00,26.6,26.0,00.0,35.5,28.5,05.6,0000.0,0007.30,0001.89,0001.17
